TimeEDT,TemperatureF,Dew PointF,Humidity,Sea Level PressureIn,VisibilityMPH,Wind Direction,Wind SpeedMPH,Gust SpeedMPH,PrecipitationIn,Events,Conditions,WindDirDegrees,DateUTC
12:53 AM,77.0,77.0,100,30.11,10.0,Calm,Calm,-,N/A,,Clear,0,2013-09-06 04:53:00
1:53 AM,75.9,75.9,100,30.11,10.0,Calm,Calm,-,N/A,,Mostly Cloudy,0,2013-09-06 05:53:00
2:53 AM,75.0,75.0,100,30.07,10.0,WNW,3.5,-,N/A,,Clear,290,2013-09-06 06:53:00
3:53 AM,75.0,75.0,100,30.06,10.0,NNW,4.6,-,N/A,,Clear,330,2013-09-06 07:53:00
4:53 AM,75.0,75.0,100,30.05,10.0,NNW,4.6,-,N/A,,Clear,330,2013-09-06 08:53:00
5:53 AM,73.9,73.9,100,30.07,10.0,North,3.5,-,N/A,,Clear,360,2013-09-06 09:53:00
6:53 AM,73.9,73.9,100,30.08,10.0,Calm,Calm,-,N/A,,Clear,0,2013-09-06 10:53:00
7:53 AM,73.9,73.9,100,30.09,8.0,Calm,Calm,-,N/A,,Clear,0,2013-09-06 11:53:00
8:53 AM,79.0,75.0,88,30.10,10.0,North,3.5,-,N/A,,Clear,350,2013-09-06 12:53:00
9:53 AM,84.0,72.0,67,30.11,10.0,NNE,6.9,-,N/A,,Clear,20,2013-09-06 13:53:00
10:53 AM,89.1,70.0,53,30.12,10.0,Variable,4.6,-,N/A,,Clear,0,2013-09-06 14:53:00
11:53 AM,90.0,70.0,52,30.11,10.0,Calm,Calm,-,N/A,,Clear,0,2013-09-06 15:53:00
12:53 PM,90.0,71.1,54,30.10,10.0,Calm,Calm,-,N/A,,Clear,0,2013-09-06 16:53:00
1:53 PM,90.0,70.0,52,30.09,10.0,Calm,Calm,-,N/A,,Partly Cloudy,0,2013-09-06 17:53:00
2:53 PM,91.0,71.1,52,30.06,10.0,West,6.9,-,N/A,,Scattered Clouds,280,2013-09-06 18:53:00
3:53 PM,91.0,71.1,52,30.03,10.0,NNW,4.6,-,N/A,,Scattered Clouds,330,2013-09-06 19:53:00
4:53 PM,91.0,72.0,53,30.01,10.0,West,8.1,-,N/A,,Scattered Clouds,260,2013-09-06 20:53:00
5:53 PM,89.1,73.0,59,30.01,10.0,WSW,5.8,-,N/A,,Scattered Clouds,240,2013-09-06 21:53:00
6:53 PM,88.0,73.0,61,30.01,10.0,NW,6.9,-,N/A,,Scattered Clouds,320,2013-09-06 22:53:00
7:53 PM,84.9,75.0,72,30.02,10.0,North,3.5,-,N/A,,Scattered Clouds,10,2013-09-06 23:53:00
8:53 PM,81.0,75.0,82,30.04,10.0,Calm,Calm,-,N/A,,Clear,0,2013-09-07 00:53:00
9:53 PM,79.0,75.9,90,30.05,10.0,Calm,Calm,-,N/A,,Mostly Cloudy,0,2013-09-07 01:53:00
10:53 PM,80.1,75.0,85,30.05,10.0,Calm,Calm,-,N/A,,Partly Cloudy,0,2013-09-07 02:53:00
11:53 PM,75.9,75.9,100,30.05,9.0,NW,3.5,-,N/A,,Scattered Clouds,320,2013-09-07 03:53:00